This demonstration page uses our WeatherBlox Daily Observations layout. Learn more.

Left ArrowRight Arrow

31.31129, -92.44514

Hourly Observations for December 11, 2019

Temp ( °F °C ) Dew Point ( °F °C ) Humidity (%) Winds ( mph kmh ) Pressure ( in mb ) Visibility ( mi km ) Precip ( " mm )
12:09 am 00:09 Cloudy 39 3.9 37 2.8 93 93 NNE 9 15 30.39 1029 10 16 0.00 0.00
12:53 am 00:53 Cloudy 39 3.9 36 2.2 89 89 NNE 13 20 30.42 1030 10 16 0.00 0.00
1:22 am 01:22 Cloudy 39 3.9 36 2.2 89 89 NNE 9 15 30.41 1030 10 16 0.00 0.00
1:37 am 01:37 Cloudy 39 3.9 36 2.2 89 89 NE 8 13 30.42 1030 10 16 0.00 0.00
1:53 am 01:53 Cloudy 39 3.9 36 2.2 89 89 NNE 10 17 30.42 1030 10 16 0.00 0.00
2:53 am 02:53 Cloudy 39 3.9 35 1.7 86 86 NE 9 15 30.44 1031 10 16 0.00 0.00
3:10 am 03:10 Cloudy 39 3.9 35 1.7 86 86 N 7 11 30.43 1031 10 16 0.00 0.00
3:53 am 03:53 Cloudy 39 3.9 35 1.7 86 86 NNE 7 11 30.45 1031 10 16 0.00 0.00
4:53 am 04:53 Cloudy 38 3.3 34 1.1 86 86 NNE 8 13 30.45 1031 10 16 0.00 0.00
5:53 am 05:53 Cloudy 38 3.3 34 1.1 86 86 NNE 6 9 30.48 1032 10 16 0.00 0.00
6:53 am 06:53 Cloudy 37 2.8 33 0.6 86 86 N 8 13 30.51 1033 10 16 0.00 0.00
7:53 am 07:53 Mostly Sunny 37 2.8 32 0 82 82 NE 9 15 30.52 1034 10 16 0.00 0.00
8:53 am 08:53 Sunny 38 3.3 32 0 79 79 NNE 8 13 30.55 1035 10 16 0.00 0.00
9:53 am 09:53 Sunny 42 5.6 33 0.6 71 71 N 9 15 30.57 1035 10 16 0.00 0.00
10:53 am 10:53 Sunny 45 7.2 31 -0.6 58 58 NE 10 17 30.55 1035 10 16 0.00 0.00
11:53 am 11:53 Sunny 49 9.4 31 -0.6 50 50 ENE 10 17 30.52 1034 10 16 0.00 0.00
12:53 pm 12:53 Sunny 51 10.6 31 -0.6 46 46 NE 8 13 30.49 1032 10 16 0.00 0.00
1:53 pm 13:53 Sunny 53 11.7 29 -1.7 40 40 ENE 9 15 30.46 1031 10 16 0.00 0.00
2:53 pm 14:53 Sunny 55 12.8 30 -1.1 38 38 VRB 6 9 30.45 1031 10 16 0.00 0.00
3:53 pm 15:53 Sunny 54 12.2 31 -0.6 42 42 NE 8 13 30.45 1031 10 16 0.00 0.00
4:53 pm 16:53 Sunny 51 10.6 32 0 48 48 NNE 8 13 30.45 1031 10 16 0.00 0.00
5:53 pm 17:53 Clear 47 8.3 32 0 56 56 NNE 5 7 30.45 1031 10 16 0.00 0.00
6:53 pm 18:53 Clear 45 7.2 32 0 61 61 NNE 3 6 30.46 1031 10 16 0.00 0.00
7:53 pm 19:53 Clear 42 5.6 33 0.6 71 71 NNE 5 7 30.45 1031 10 16 0.00 0.00
8:53 pm 20:53 Clear 41 5 33 0.6 73 73 ENE 3 6 30.45 1031 10 16 0.00 0.00
9:53 pm 21:53 Clear 40 4.4 32 0 73 73 Calm 30.45 1031 10 16 0.00 0.00
10:53 pm 22:53 Clear 36 2.2 32 0 86 86 Calm 30.45 1031 10 16 0.00 0.00
11:53 pm 23:53 Clear 37 2.8 32 0 82 82 NNE 3 6 30.43 1031 10 16 0.00 0.00

Powered by AerisWeather